This demonstration page uses our WeatherBlox Daily Observations layout. Learn more.

Left ArrowRight Arrow

39.08367, -84.50855

Hourly Observations for December 20, 2015

Temp ( °F °C ) Dew Point ( °F °C ) Humidity (%) Winds ( mph kmh ) Pressure ( in mb ) Visibility ( mi km ) Precip ( " mm )
12:53 am 00:53 Clear 23 -5 19 -7.2 85 85 Calm 30.53 1034 10 16 0.00 0.00
1:53 am 01:53 Clear 23 -5 20 -6.7 88 88 Calm 30.50 1033 10 16 0.00 0.00
2:53 am 02:53 Clear 22 -5.6 20 -6.7 92 92 Calm 30.50 1033 10 16 0.00 0.00
3:53 am 03:53 Clear 23 -5 19 -7.2 85 85 Calm 30.50 1033 10 16 0.00 0.00
4:53 am 04:53 Clear 21 -6.1 19 -7.2 92 92 Calm 30.50 1033 10 16 0.00 0.00
5:53 am 05:53 Clear 22 -5.6 20 -6.7 92 92 Calm 30.49 1033 10 16 0.00 0.00
6:53 am 06:53 Clear 22 -5.6 20 -6.7 92 92 Calm 30.53 1034 10 16 0.00 0.00
7:53 am 07:53 Sunny 22 -5.6 20 -6.7 92 92 NNE 3 6 30.49 1032 9 14 0.00 0.00
8:53 am 08:53 Sunny 25 -3.9 22 -5.6 88 88 W 3 6 30.50 1033 10 16 0.00 0.00
9:53 am 09:53 Sunny 32 0 25 -3.9 75 75 SSW 5 7 30.48 1032 10 16 0.00 0.00
10:53 am 10:53 Sunny 37 2.8 25 -3.9 62 62 SSW 7 11 30.47 1032 10 16 0.00 0.00
11:53 am 11:53 Sunny 41 5 25 -3.9 53 53 S 6 9 30.43 1031 10 16 0.00 0.00
12:53 pm 12:53 Sunny 44 6.7 26 -3.3 49 49 S 10 17 30.38 1029 10 16 0.00 0.00
1:53 pm 13:53 Sunny 46 7.8 27 -2.8 47 47 S 12 19 30.34 1027 10 16 0.00 0.00
2:53 pm 14:53 Sunny 47 8.3 27 -2.8 46 46 S 9 15 30.31 1026 10 16 0.00 0.00
3:53 pm 15:53 Sunny 47 8.3 26 -3.3 44 44 S 8 13 30.29 1026 10 16 0.00 0.00
4:53 pm 16:53 Sunny 46 7.8 25 -3.9 44 44 S 6 9 30.28 1026 10 16 0.00 0.00
5:53 pm 17:53 Clear 45 7.2 27 -2.8 49 49 S 8 13 30.27 1025 10 16 0.00 0.00
6:53 pm 18:53 Clear 44 6.7 26 -3.3 49 49 S 9 15 30.26 1025 10 16 0.00 0.00
7:53 pm 19:53 Clear 44 6.7 24 -4.4 45 45 SSW 6 9 30.24 1024 10 16 0.00 0.00
8:53 pm 20:53 Clear 43 6.1 23 -5 45 45 SSW 9 15 30.23 1024 10 16 0.00 0.00
9:53 pm 21:53 Clear 42 5.6 23 -5 47 47 SSW 7 11 30.24 1024 10 16 0.00 0.00
10:53 pm 22:53 Clear 43 6.1 24 -4.4 47 47 SSW 9 15 30.20 1023 10 16 0.00 0.00
11:53 pm 23:53 Clear 43 6.1 24 -4.4 47 47 VRB 3 6 30.19 1022 10 16 0.00 0.00

Powered by AerisWeather